Simultaneous Nadir Overpasses (SNOs) Predictions

Prediction of SNOs between GOES-16 and NPP Satellite Orbit:

Table of predicted SNOs for the next 14.0 days since TLE Epoch: 12/10/2022
Index Date Time (GOES-16) GOES-16 Lat,Lon NPP Lat,Lon Distance(km) Time Diff (sec)
1 12/11/2022 06:45:39 -0.01, -75.19 0.96, -79.41 480.66 80
2 12/12/2022 06:26:57 -0.00, -75.20 -0.10, -74.89 35.91 80
3 12/14/2022 18:27:32 0.01, -75.22 -0.11, -75.66 51.07 80
4 12/15/2022 18:11:28 0.00, -75.23 0.89, -71.13 466.14 80
5 12/17/2022 06:33:19 -0.01, -75.24 0.25, -76.41 133.34 80
6 12/18/2022 06:11:55 -0.00, -75.26 -0.75, -71.88 384.04 80
7 12/19/2022 18:33:53 0.00, -75.28 -0.45, -77.19 218.65 80
8 12/20/2022 18:17:51 -0.00, -75.29 0.61, -72.67 299.03 80
9 12/22/2022 06:39:40 0.00, -75.31 0.59, -77.94 299.75 80
10 12/23/2022 06:18:17 0.01, -75.32 -0.42, -73.41 217.69 80
